Voltar ao catálogo

STARLINK-33746

AtivoComunicaçõesVLEO
NORAD 63446·PAYLOAD·🇺🇸 United States

Lançado Apr 4, 2025 de Vandenberg Space Force Base

Loading…

Próximas Passagens (próximas 24 horas)

TLE

AtualizadoSource: CelesTrak SupGP

Época: Sep 14, 2026, 20:53 UTC

1 63446C 25069P   26257.87062500 -.00013416  00000+0 -39644-3 0  2577
2 63446  53.1585 336.0754 0001185  83.8489  41.9025 15.34393514    15

Acompanhe STARLINK-33746 em tempo real com AllMySat

Download on the App Store